This demonstration page uses our WeatherBlox Daily Observations layout. Learn more.

Left ArrowRight Arrow

44.8408, -93.29828

Hourly Observations for April 14, 2022

Temp ( °F °C ) Dew Point ( °F °C ) Humidity (%) Winds ( mph kmh ) Pressure ( in mb ) Visibility ( mi km ) Precip ( " mm )
12:53 am 00:53 Mostly Cloudy 32 0 17 -8.3 54 54 SW 10 17 29.61 1003 10 16 0.00 0.00
1:53 am 01:53 Clear 30 -1.1 14 -10 51 51 WSW 23 37 29.59 1002 10 16 0.00 0.00
2:53 am 02:53 Cloudy 30 -1.1 16 -8.9 56 56 WSW 14 22 29.58 1002 10 16 0.00 0.00
3:53 am 03:53 Cloudy 30 -1.1 16 -8.9 56 56 SW 18 30 29.56 1001 10 16 0.00 0.00
4:53 am 04:53 Cloudy 29 -1.7 16 -8.9 58 58 SW 17 28 29.54 1000 10 16 0.00 0.00
5:09 am 05:09 Windy with Snow Likely 29 -1.7 17 -8.3 61 61 SW 20 31 29.55 1001 10 16 0.00 0.00
5:53 am 05:53 Windy with Snow Likely 28 -2.2 17 -8.3 63 63 WSW 21 33 29.51 999 9 14 0.00 0.00
6:11 am 06:11 Cloudy 29 -1.7 16 -8.9 58 58 WSW 18 30 29.53 1000 9 14 0.00 0.00
6:53 am 06:53 Cloudy 29 -1.7 16 -8.9 58 58 SW 22 35 29.49 999 10 16 0.00 0.00
7:21 am 07:21 Windy with Snow Likely 29 -1.7 16 -8.9 58 58 SW 22 35 29.51 999 10 16 0.00 0.00
7:53 am 07:53 Windy with Snow Likely 29 -1.7 17 -8.3 61 61 SW 21 33 29.48 998 9 14 0.00 0.00
8:08 am 08:08 Cloudy 29 -1.7 17 -8.3 61 61 WSW 21 33 29.50 999 9 14 0.00 0.00
8:20 am 08:20 Windy with Snow Likely 29 -1.7 17 -8.3 61 61 WSW 25 41 29.50 999 10 16 0.00 0.00
8:45 am 08:45 Cloudy 29 -1.7 17 -8.3 61 61 SW 21 33 29.50 999 9 14 0.00 0.00
8:53 am 08:53 Windy with Snow Likely 29 -1.7 18 -7.8 63 63 SW 24 39 29.47 998 10 16 0.00 0.00
9:53 am 09:53 Windy with Snow Likely 30 -1.1 19 -7.2 64 64 WSW 24 39 29.47 998 8 13 0.00 0.00
10:28 am 10:28 Windy with Snow Likely 31 -0.6 20 -6.7 64 64 SW 28 44 29.50 999 5 8 0.00 0.00
10:53 am 10:53 Cloudy 32 0 19 -7.2 59 59 SW 22 35 29.48 998 10 16 0.00 0.00
10:57 am 10:57 Windy with Snow Likely 31 -0.6 19 -7.2 61 61 WSW 29 46 29.50 999 7 11 0.00 0.00
11:25 am 11:25 Windy with Snow Likely 30 -1.1 21 -6.1 69 69 WSW 26 43 29.52 1000 2 3 0.00 0.00
11:28 am 11:28 Windy with Snow Likely 30 -1.1 22 -5.6 72 72 WSW 22 35 29.52 1000 1 2 0.00 0.00
11:33 am 11:33 Windy with Snow Likely 30 -1.1 22 -5.6 72 72 WSW 28 44 29.52 1000 1 1 0.00 0.00
11:39 am 11:39 Cloudy with Snow 30 -1.1 23 -5 75 75 WSW 18 30 29.53 1000 1 1 0.00 0.00
11:53 am 11:53 Windy with Snow Likely 30 -1.1 24 -4.4 79 79 WSW 20 31 29.50 999 2 3 0.00 0.00
12:02 pm 12:02 Windy with Snow Likely 31 -0.6 24 -4.4 76 76 WSW 21 33 29.52 1000 1 2 0.00 0.00
12:13 pm 12:13 Cloudy with Light Snow 31 -0.6 23 -5 72 72 WSW 18 30 29.53 1000 2 3 0.00 0.00
12:20 pm 12:20 Windy with Snow Likely 32 0 23 -5 69 69 WSW 25 41 29.51 999 8 13 0.00 0.00
12:36 pm 12:36 Windy with Snow Likely 33 0.6 23 -5 66 66 W 29 46 29.51 999 8 13 0.00 0.00
12:53 pm 12:53 Windy with Snow Likely 32 0 24 -4.4 73 73 WSW 26 43 29.51 999 2 3 0.00 0.00
1:02 pm 13:02 Windy with Snow Likely 32 0 25 -3.9 75 75 WSW 21 33 29.53 1000 4 6 0.00 0.00
1:53 pm 13:53 Windy with Snow Likely 35 1.7 26 -3.3 70 70 WSW 20 31 29.53 1000 9 14 0.00 0.00
1:59 pm 13:59 Windy with Snow Likely 34 1.1 25 -3.9 70 70 WSW 24 39 29.55 1001 9 14 0.00 0.00
2:08 pm 14:08 Windy with Snow Likely 35 1.7 23 -5 61 61 W 37 59 29.55 1001 9 14 0.00 0.00
2:21 pm 14:21 Cloudy 35 1.7 22 -5.6 59 59 W 26 43 29.56 1001 9 14 0.00 0.00
2:53 pm 14:53 Windy with Snow Likely 36 2.2 22 -5.6 57 57 W 33 54 29.56 1001 10 16 0.00 0.00
3:09 pm 15:09 Windy with Snow Likely 35 1.7 24 -4.4 64 64 W 23 37 29.59 1002 4 6 0.00 0.00
3:25 pm 15:25 Windy with Snow Likely 34 1.1 25 -3.9 70 70 WSW 26 43 29.60 1002 4 6 0.00 0.00
3:35 pm 15:35 Windy with Snow Likely 34 1.1 27 -2.8 76 76 W 28 44 29.60 1002 4 6 0.00 0.00
3:53 pm 15:53 Windy with Snow Likely 35 1.7 24 -4.4 64 64 WSW 24 39 29.60 1002 6 10 0.00 0.00
4:17 pm 16:17 Windy with Snow Likely 33 0.6 24 -4.4 70 70 W 25 41 29.63 1003 2 3 0.00 0.00
4:42 pm 16:42 Windy with Snow Likely 34 1.1 24 -4.4 67 67 W 25 41 29.64 1004 6 10 0.00 0.00
4:53 pm 16:53 Windy with Snow Likely 35 1.7 23 -5 61 61 W 23 37 29.63 1004 9 14 0.00 0.00
5:53 pm 17:53 Mostly Cloudy with Light Snow 33 0.6 24 -4.4 70 70 W 20 31 29.67 1005 5 8 0.01 0.25
6:14 pm 18:14 Windy with Snow Likely 32 0 24 -4.4 73 73 WNW 25 41 29.71 1006 1 2 0.00 0.00
6:18 pm 18:18 Windy with Snow Likely 31 -0.6 25 -3.9 79 79 W 22 35 29.71 1006 6 10 0.00 0.00
6:53 pm 18:53 Cloudy 32 0 22 -5.6 66 66 W 24 39 29.70 1006 9 14 0.00 0.00
7:53 pm 19:53 Cloudy with Light Snow 31 -0.6 21 -6.1 67 67 W 18 30 29.73 1007 9 14 0.00 0.00
8:11 pm 20:11 Cloudy 31 -0.6 21 -6.1 67 67 W 18 30 29.76 1008 9 14 0.00 0.00
8:27 pm 20:27 Windy with Snow Likely 30 -1.1 21 -6.1 69 69 W 26 43 29.77 1008 5 8 0.00 0.00
8:53 pm 20:53 Mostly Cloudy 30 -1.1 20 -6.7 66 66 W 23 37 29.76 1008 9 14 0.00 0.00
9:53 pm 21:53 Mostly Cloudy 30 -1.1 19 -7.2 64 64 W 16 26 29.78 1008 10 16 0.00 0.00
10:44 pm 22:44 Cloudy with Light Snow 30 -1.1 19 -7.2 64 64 NW 16 26 29.80 1009 4 6 0.00 0.00
10:53 pm 22:53 Cloudy with Light Snow 29 -1.7 21 -6.1 72 72 WNW 14 22 29.78 1008 9 14 0.00 0.00
11:07 pm 23:07 Cloudy with Light Snow 29 -1.7 22 -5.6 75 75 WNW 13 20 29.80 1009 8 13 0.00 0.00
11:26 pm 23:26 Mostly Cloudy 29 -1.7 20 -6.7 69 69 W 22 35 29.79 1009 9 14 0.00 0.00
11:40 pm 23:40 Mostly Cloudy 29 -1.7 19 -7.2 66 66 W 28 44 29.80 1009 10 16 0.00 0.00
11:53 pm 23:53 Mostly Cloudy 29 -1.7 19 -7.2 66 66 W 16 26 29.78 1008 10 16 0.00 0.00

Powered by AerisWeather